Regional Weather Roundup
Issued by NWS

Home | Current Version | Previous Version | Text Only | Print | Product List | Glossary On
Versions: 1 2 3 4 5 6 7 8 9 10 11 12 13 14 15 16 17 18 19 20 21 22 23 24 25 26 27 28
000
ASUS46 KSEW 171310
RWRWA

WASHINGTON REGIONAL WEATHER ROUNDUP
NATIONAL WEATHER SERVICE SEATTLE WA
600 AM PDT THU APR 17 2014

NOTE:"FAIR" INDICATES FEW OR NO CLOUDS BELOW 12,000 FEET WITH NO
SIGNIFICANT WEATHER AND/OR OBSTRUCTIONS TO VISIBILITY.

WAZ505-507>509-171400-
SEATTLE, TACOMA, EVERETT, AND VICINITY

CITY           SKY/WX    TMP DP  RH WIND       PRES   REMARKS
EVERETT        LGT RAIN  49  47  93 S5        29.86F
BOEING FIELD   LGT RAIN  53  48  83 S9        29.88F
RENTON         LGT RAIN  51  50  96 SE6       29.88F FOG
SEATAC AIRPORT LGT RAIN  50  48  93 S9        29.88F
JBLM-MCCHORD   LGT RAIN  50  49  99 SE3       29.88F
PUYALLUP       LGT RAIN  48  48 100 CALM      29.89F
JBLM-FT LEWIS  DRIZZLE   49  49  99 SE6       29.87F
TACOMA NARROWS LGT RAIN  49  48  97 SE5       29.87F
$$

WAZ001-503-506-510-514-515-171400-
NORTH INTERIOR

CITY           SKY/WX    TMP DP  RH WIND       PRES   REMARKS
BELLINGHAM     LGT RAIN  50  46  86 S6        29.84F
FRIDAY HARBOR  LGT RAIN  48  46  93 S5        29.85S
EASTSOUND      CLOUDY    48  46  93 S5        29.82S
PORT ANGELES   CLOUDY    48  47  96 CALM      29.84S
NAS WHIDBEY    LGT RAIN  51  47  86 E6        29.86F
BURLINGTON     CLOUDY   N/A N/A N/A E7        29.87F
$$

WAZ020-022-039-040-504-511-512-171400-
SOUTHWEST INTERIOR

CITY           SKY/WX    TMP DP  RH WIND       PRES   REMARKS
SHELTON        LGT RAIN  50  49  96 SE3       29.84F FOG
OLYMPIA        LGT RAIN  50  48  93 S7        29.87F FOG
CHEHALIS       LGT RAIN  50  50 100 S6        29.90F
KELSO          CLOUDY    52  46  82 S6        29.93F
VANCOUVER      LGT RAIN  51  48  89 SE5       29.91F
SCAPPOOSE, OR  LGT RAIN  51  50  96 SE3       29.90F FOG
PORTLAND, OR   LGT RAIN  50  49  96 SE5       29.92F
$$

WAZ021-516-517-171400-
WASHINGTON COAST

CITY           SKY/WX    TMP DP  RH WIND       PRES   REMARKS
FORKS          HVY RAIN  50  49  96 S8        29.82F FOG
HOQUIAM        LGT RAIN  51  51 100 SE5       29.85F
ASTORIA, OR    LGT RAIN  52  49  89 S7        29.87F
$$

WAZ019-023-024-040-518-519-171400-
CASCADE MOUNTAINS AND COLUMBIA GORGE

CITY           SKY/WX    TMP DP  RH WIND       PRES   REMARKS
STAMPEDE PASS  NOT AVBL
TROUTDALE, OR  LGT RAIN  51  48  89 E3        29.90F
THE DALLES, OR CLOUDY    51  45  79 S5        29.89F
$$

WAZ026-027-041>044-520-521-171400-
EAST SLOPES

CITY           SKY/WX    TMP DP  RH WIND       PRES   REMARKS
OMAK           CLOUDY    49  40  71 S8        29.81F
WENATCHEE      MOCLDY    49  37  63 NW7       29.83F
ELLENSBURG     CLOUDY    43  39  86 NE3       29.85S
YAKIMA         CLOUDY    49  40  71 W5        29.85F
$$

WAZ028-034-035-171400-
COLUMBIA BASIN

CITY           SKY/WX    TMP DP  RH WIND       PRES   REMARKS
EPHRATA        CLOUDY    48  44  86 CALM      29.83F
MOSES LAKE     CLOUDY    48  46  93 S8        29.84F
HANFORD        NOT AVBL
PASCO          LGT RAIN  53  46  77 S12       29.87F
HERMISTON, OR  LGT RAIN  50  47  89 S6        29.88F
$$

WAZ036>038-171400-
NORTHEAST WASHINGTON

CITY           SKY/WX    TMP DP  RH WIND       PRES   REMARKS
SPOKANE GEIGER LGT RAIN  43  41  93 S7        29.86F
SPOKANE FELTS  LGT RAIN  45  42  89 NE3       29.89S
FAIRCHILD AFB  LGT RAIN  43  41  93 S8        29.86F
COEURDALENE,ID CLOUDY    43  39  87 S9        29.89S
DEER PARK      LGT RAIN  42  41  96 CALM      29.87F
$$

WAZ029>033-171400-
SOUTHEAST WASHINGTON

CITY           SKY/WX    TMP DP  RH WIND       PRES   REMARKS
PULLMAN        CLOUDY    43  40  89 E7        29.91F
LEWISTON, ID   CLOUDY    48  38  68 NE6       29.89F
WALLA WALLA    LGT RAIN  51  45  79 SE5       29.89F
PENDLETON, OR  CLOUDY    46  40  79 CALM      29.88F
$$



USA.gov is the U.S. government's official web portal to all federal, state and local government web resources and services.